Weather History for KHAI - December, 2008

Change the Weather History Date:

Thursday, December 25, 2008

  Actual Average Record
Temperature  
Mean Temperature 16 °F -  
Max Temperature 19 °F 30 °F 65 °F (1982)
Min Temperature 12 °F 16 °F -10 °F (1983)
Degree Days  
Heating Degree Days 50    
Moisture  
Dew Point 12 °F    
Average Humidity 82    
Maximum Humidity 93    
Minimum Humidity 73    
Precipitation  
Precipitation 0.00 in - - ()
Sea Level Pressure  
Sea Level Pressure 30.37 in    
Wind  
Wind Speed 9 mph (SSW)    
Max Wind Speed 18 mph    
Max Gust Speed 21 mph    
Visibility 7 miles    
Events Snow    
Averages and records for this station are not official NWS values.
T = Trace of Precipitation, MM = Missing Value Source: NWS Daily Summary

Daily Weather History Graph

Daily Weather History Graph

Search for Another Location

Airport or City:

Trip Planner

Search our weather history database for the weather conditions in past years. The results will help you decide how hot, cold, wet, or windy it might be!

Date:

Astronomy

Dec. 25, 2008 Rise Set
Actual Time 8:08 AM EST 5:16 PM EST
Civil Twilight 7:37 AM EST 5:48 PM EST
Nautical Twilight 7:01 AM EST 6:23 PM EST
Astronomical Twilight 6:27 AM EST 6:57 PM EST
Moon 6:53 AM EST (12/25) 3:33 PM EST (12/25)
Length of Visible Light 10h 11m
Length of Day
9h 07m
Waning Crescent, 3% of the Moon is Illuminated
Dec 25
Waning Crescent
Dec 27
New
Jan 4
First Quarter
Jan 10
Full
Jan 17
Last Quarter

Hourly Weather History & Observations

Time (EST) Temp. Windchill Dew Point Humidity Pressure Visibility Wind Dir Wind Speed Gust Speed Precip Events Conditions
12:17 AM 19.4 °F 5.5 °F 14.0 °F 80% 30.18 in 7.0 mi West 15.0 mph 20.7 mph N/A Snow Light Snow
12:37 AM 19.4 °F 6.6 °F 14.0 °F 80% 30.19 in 7.0 mi West 12.7 mph 17.3 mph N/A Snow Light Snow
12:55 AM 19.4 °F 6.0 °F 14.0 °F 80% 30.18 in 7.0 mi West 13.8 mph 20.7 mph N/A Snow Light Snow
1:17 AM 19.4 °F 7.2 °F 14.0 °F 80% 30.21 in 7.0 mi West 11.5 mph 18.4 mph N/A Snow Light Snow
1:37 AM 19.4 °F 7.9 °F 14.0 °F 80% 30.22 in 7.0 mi WSW 10.4 mph 16.1 mph N/A Snow Light Snow
1:55 AM 19.4 °F 4.1 °F 14.0 °F 80% 30.22 in 7.0 mi West 18.4 mph - N/A Snow Light Snow
2:17 AM 19.4 °F 7.2 °F 14.0 °F 80% 30.23 in 7.0 mi West 11.5 mph 18.4 mph N/A Snow Light Snow
2:37 AM 19.4 °F 7.2 °F 14.0 °F 80% 30.24 in 5.0 mi West 11.5 mph 17.3 mph N/A Snow Light Snow
2:55 AM 19.4 °F 9.5 °F 14.0 °F 80% 30.26 in 7.0 mi West 8.1 mph - N/A Snow Light Snow
3:17 AM 19.4 °F 7.9 °F 14.0 °F 80% 30.27 in 5.0 mi West 10.4 mph 17.3 mph N/A Snow Light Snow
3:37 AM 19.4 °F 8.6 °F 14.0 °F 80% 30.28 in 7.0 mi West 9.2 mph - N/A Snow Light Snow
3:55 AM 19.4 °F 8.6 °F 14.0 °F 80% 30.30 in 5.0 mi West 9.2 mph - N/A Snow Light Snow
4:17 AM 19.4 °F 9.5 °F 14.0 °F 80% 30.32 in 5.0 mi SW 8.1 mph - N/A Snow Light Snow
4:37 AM 17.6 °F 8.2 °F 14.0 °F 86% 30.33 in 5.0 mi WSW 6.9 mph - N/A Snow Light Snow
4:55 AM 17.6 °F 5.7 °F 14.0 °F 86% 30.33 in 4.0 mi SW 10.4 mph - N/A Snow Light Snow
5:17 AM 15.8 °F 6.1 °F 12.2 °F 86% 30.34 in 4.0 mi SW 6.9 mph - N/A Snow Light Snow
5:37 AM 15.8 °F 5.1 °F 12.2 °F 86% 30.34 in 3.0 mi SW 8.1 mph - N/A Snow Light Snow
5:55 AM 15.8 °F 7.2 °F 12.2 °F 86% 30.34 in 4.0 mi SW 5.8 mph - N/A Snow Light Snow
6:17 AM 14.0 °F 2.9 °F 12.2 °F 93% 30.34 in 4.0 mi SW 8.1 mph - N/A Snow Light Snow
6:37 AM 14.0 °F 3.9 °F 12.2 °F 93% 30.35 in 4.0 mi SW 6.9 mph - N/A Snow Light Snow
6:55 AM 14.0 °F 5.1 °F 12.2 °F 93% 30.37 in 5.0 mi SW 5.8 mph - N/A Snow Light Snow
7:17 AM 14.0 °F 2.0 °F 12.2 °F 93% 30.38 in 5.0 mi SW 9.2 mph - N/A Snow Light Snow
7:37 AM 14.0 °F 2.9 °F 12.2 °F 93% 30.39 in 5.0 mi SW 8.1 mph - N/A Snow Light Snow
7:55 AM 14.0 °F 3.9 °F 12.2 °F 93% 30.39 in 5.0 mi SW 6.9 mph - N/A Snow Light Snow
8:17 AM 14.0 °F 5.1 °F 10.4 °F 86% 30.40 in 4.0 mi SW 5.8 mph - N/A Snow Light Snow
8:37 AM 14.0 °F 3.9 °F 12.2 °F 93% 30.41 in 2.0 mi SW 6.9 mph - N/A Snow Light Snow
8:55 AM 14.0 °F 6.5 °F 12.2 °F 93% 30.42 in 1.5 mi WSW 4.6 mph - N/A Snow Light Snow
9:17 AM 14.0 °F 5.1 °F 10.4 °F 86% 30.42 in 1.8 mi SW 5.8 mph - N/A Snow Light Snow
9:37 AM 14.0 °F 6.5 °F 10.4 °F 86% 30.43 in 1.8 mi SSW 4.6 mph - N/A Snow Light Snow
9:55 AM 12.2 °F 1.7 °F 10.4 °F 92% 30.44 in 2.0 mi SSW 6.9 mph - N/A Snow Light Snow
10:17 AM 14.0 °F 5.1 °F 10.4 °F 86% 30.44 in 5.0 mi SSW 5.8 mph - N/A Snow Light Snow
10:37 AM 14.0 °F 6.5 °F 10.4 °F 86% 30.45 in 7.0 mi South 4.6 mph - N/A   Scattered Clouds
10:55 AM 14.0 °F 5.1 °F 10.4 °F 86% 30.45 in 7.0 mi South 5.8 mph - N/A   Clear
11:17 AM 14.0 °F 3.9 °F 10.4 °F 86% 30.45 in 10.0 mi South 6.9 mph - N/A   Clear
11:37 AM 15.8 °F 6.1 °F 10.4 °F 79% 30.46 in 7.0 mi South 6.9 mph - N/A   Clear
11:55 AM 17.6 °F 7.3 °F 10.4 °F 73% 30.46 in 10.0 mi SSW 8.1 mph - N/A   Clear
12:17 PM 17.6 °F 8.2 °F 12.2 °F 79% 30.46 in 7.0 mi SSW 6.9 mph - N/A   Clear
12:37 PM 17.6 °F 9.3 °F 12.2 °F 79% 30.45 in 10.0 mi SSW 5.8 mph - N/A   Clear
12:55 PM 17.6 °F 9.3 °F 12.2 °F 79% 30.44 in 10.0 mi SSW 5.8 mph - N/A   Clear
1:17 PM 19.4 °F 12.8 °F 12.2 °F 74% 30.43 in 10.0 mi South 4.6 mph - N/A   Clear
1:37 PM 19.4 °F 12.8 °F 12.2 °F 74% 30.43 in 10.0 mi South 4.6 mph - N/A   Clear
1:55 PM 19.4 °F 10.4 °F 12.2 °F 74% 30.44 in 10.0 mi South 6.9 mph - N/A   Clear
2:17 PM 19.4 °F 10.4 °F 12.2 °F 74% 30.43 in 10.0 mi South 6.9 mph - N/A   Clear
2:37 PM 19.4 °F 10.4 °F 12.2 °F 74% 30.44 in 10.0 mi SSW 6.9 mph - N/A   Clear
2:55 PM 19.4 °F 10.4 °F 12.2 °F 74% 30.43 in 10.0 mi South 6.9 mph - N/A   Clear
3:17 PM 19.4 °F 11.5 °F 12.2 °F 74% 30.43 in 10.0 mi South 5.8 mph - N/A   Clear
3:37 PM 19.4 °F 14.3 °F 12.2 °F 74% 30.43 in 10.0 mi South 3.5 mph - N/A   Clear
3:55 PM 19.4 °F 12.8 °F 12.2 °F 74% 30.43 in 10.0 mi South 4.6 mph - N/A   Clear
4:17 PM 17.6 °F 12.3 °F 12.2 °F 79% 30.43 in 10.0 mi South 3.5 mph - N/A   Clear
4:37 PM 17.6 °F 12.3 °F 12.2 °F 79% 30.43 in 10.0 mi SSW 3.5 mph - N/A   Clear
4:55 PM 17.6 °F 12.3 °F 10.4 °F 73% 30.43 in 10.0 mi SSE 3.5 mph - N/A   Clear
5:17 PM 17.6 °F 12.3 °F 12.2 °F 79% 30.42 in 10.0 mi SSE 3.5 mph - N/A   Clear
5:37 PM 17.6 °F 12.3 °F 10.4 °F 73% 30.42 in 10.0 mi SSE 3.5 mph - N/A   Clear
5:55 PM 17.6 °F - 10.4 °F 73% 30.42 in 10.0 mi Calm Calm - N/A   Clear
6:17 PM 17.6 °F - 10.4 °F 73% 30.41 in 10.0 mi Calm Calm - N/A   Clear
6:36 PM 17.6 °F 12.3 °F 12.2 °F 79% 30.42 in 10.0 mi SE 3.5 mph - N/A   Clear
6:55 PM 15.8 °F - 10.4 °F 79% 30.42 in 10.0 mi Calm Calm - N/A   Clear
7:16 PM 15.8 °F 10.2 °F 12.2 °F 86% 30.41 in 10.0 mi SE 3.5 mph - N/A   Clear
7:37 PM 17.6 °F 12.3 °F 12.2 °F 79% 30.41 in 7.0 mi SE 3.5 mph - N/A   Clear
7:55 PM 17.6 °F 12.3 °F 12.2 °F 79% 30.41 in 10.0 mi SE 3.5 mph - N/A   Clear
8:17 PM 17.6 °F 12.3 °F 12.2 °F 79% 30.40 in 7.0 mi SE 3.5 mph - N/A   Clear
8:37 PM 17.6 °F 12.3 °F 12.2 °F 79% 30.41 in 10.0 mi SE 3.5 mph - N/A   Clear
8:55 PM 17.6 °F 10.7 °F 12.2 °F 79% 30.39 in 10.0 mi ESE 4.6 mph - N/A   Clear
9:17 PM 17.6 °F 10.7 °F 12.2 °F 79% 30.38 in 10.0 mi ESE 4.6 mph - N/A   Clear
9:37 PM 17.6 °F 12.3 °F 12.2 °F 79% 30.38 in 10.0 mi SE 3.5 mph - N/A   Scattered Clouds
9:55 PM 19.4 °F 12.8 °F 12.2 °F 74% 30.36 in 10.0 mi SE 4.6 mph - N/A   Scattered Clouds
10:17 PM 19.4 °F 14.3 °F 12.2 °F 74% 30.35 in 10.0 mi SE 3.5 mph - N/A   Clear
10:37 PM 19.4 °F 12.8 °F 14.0 °F 80% 30.33 in 10.0 mi East 4.6 mph - N/A   Mostly Cloudy
10:55 PM 19.4 °F 11.5 °F 14.0 °F 80% 30.32 in 10.0 mi ESE 5.8 mph - N/A   Overcast
11:17 PM 21.2 °F 12.6 °F 14.0 °F 74% 30.31 in 10.0 mi SE 6.9 mph - N/A   Overcast
11:37 PM 21.2 °F 12.6 °F 15.8 °F 80% 30.30 in 10.0 mi SE 6.9 mph - N/A   Overcast